Location: Gleizolles
(44.4833°N, 6.7667°E)
Time: 23:55:48
(UTC+00:00)

S-56A Canister/Altair - Pass Details

Date: 28 June 2024
Orbit: 638 x 2488 km, 38.9° (Epoch: 24 July)

Event Time Altitude Azimuth Distance (km) Brightness Sun altitude
Rises 18:00:37 0° 220° (SW) 3,411 11.1 12.0°
Reaches altitude 10° 18:03:01 10° 211° (SSW) 2,656 10.5 11.6°
Maximum altitude 18:08:43 34° 148° (SSE) 1,863 9.2 10.6°
Drops below altitude 10° 18:16:48 10° 88° (E) 3,812 10.6 9.3°
Sets 18:20:58 0° 81° (E) 5,125 11.2 8.6°
